[ hide orbit diagram ]
For accurate long-term ephemerides, please instead use our Horizons system.This orbit viewer was implemented using two-body methods, and hence should not be used for determining accurate long-term trajectories (over several years or decades) or planetary encounter circumstances.
Orbital Elements at Epoch 2459000.5 (2020-May-31.0) TDB
Reference: JPL 11 (heliocentric ecliptic J2000)
Element | Value | Uncertainty (1-sigma) | Units |
e | .2322667920595413 | 1.3736e-07 | |
a | 2.542779948348336 | 2.7156e-08 | au |
q | 1.952176606832142 | 3.5759e-07 | au |
i | 6.086223002402241 | 3.3569e-05 | deg |
node | 31.534127863967 | 5.2582e-05 | deg |
peri | 247.145858363167 | 0.00010355 | deg |
M | 225.2597782208074 | 8.8227e-05 | deg |
tp | 2459554.814642726863 (2021-Dec-06.31464273) | 0.00036824 | TDB |
period | 1481.022286787471 4.05 | 2.3726e-05 6.496e-08 | d yr |
n | .243075342762658 | 3.894e-09 | deg/d |
Q | 3.13338328986453 | 3.3464e-08 | au |
|
| | Orbit Determination Parameters
Additional Information
|
[ show covariance matrix ]
Physical Parameter Table
Parameter |
Symbol |
Value |
Units |
Sigma |
Reference |
Notes |
absolute magnitude |
H |
17.1 |
|
n/a |
MPO471687 |
|
|
357657 (2005 JD68) Discovered 2005-May-04 by Siding Spring Survey at Siding Spring |
Reference: 20130327/Numbers.arc | Last Updated: 2013-03-29 |
|
|